GW5111 Weather Reports


Display with metric or nautical units.
time (UTC)temp
F
wind
direction
speed
MPH
gust
MPH
rain 1hr
in
rain 24hr
in
rain mn
in
humidity
%
barometer
mb
20260502233450 41 7 4.0 7.0 0.00 0.00 0.00 61 1014.1
20260502232947 41 0 3.0 9.0 0.00 0.00 0.00 62 1014.2
20260502232443 42 326 7.0 8.0 0.00 0.00 0.00 60 1014.1
20260502231940 42 35 1.0 4.0 0.00 0.00 0.00 60 1013.9
20260502231437 43 346 3.0 9.0 0.00 0.00 0.00 57 1014.0
20260502230936 42 355 5.0 11.0 0.00 0.00 0.00 59 1014.0
20260502230433 42 336 5.0 6.0 0.00 0.00 0.00 62 1014.1
20260502225931 42 311 2.0 8.0 0.00 0.00 0.00 63 1014.2
20260502225427 41 353 8.0 11.0 0.00 0.00 0.00 60 1013.9
20260502224924 42 46 8.0 10.0 0.00 0.00 0.00 60 1014.0
20260502224420 43 332 4.0 8.0 0.00 0.00 0.00 60 1014.1
20260502223917 43 26 5.0 9.0 0.00 0.00 0.00 59 1013.7
20260502223415 44 25 6.0 13.0 0.00 0.00 0.00 59 1014.0
20260502222913 42 1 7.0 14.0 0.00 0.00 0.00 60 1013.9
20260502222410 42 11 3.0 9.0 0.00 0.00 0.00 62 1014.0
20260502221910 42 321 4.0 10.0 0.00 0.00 0.00 60 1014.1
20260502221408 44 14 5.0 10.0 0.00 0.00 0.00 59 1013.7
20260502220905 45 7 4.0 7.0 0.00 0.00 0.00 59 1013.9
20260502220400 44 346 6.0 10.0 0.00 0.00 0.00 60 1013.9
20260502215857 42 314 3.0 11.0 0.00 0.00 0.00 61 1014.0
20260502215355 42 347 2.0 6.0 0.00 0.00 0.00 62 1013.6
20260502214851 42 17 7.0 11.0 0.00 0.00 0.00 62 1013.9
20260502214348 42 347 6.0 8.0 0.00 0.00 0.00 61 1013.6
20260502213845 42 42 5.0 9.0 0.00 0.00 0.00 62 1013.6
20260502213342 43 39 2.0 7.0 0.00 0.00 0.00 63 1013.6
20260502212841 43 72 2.0 6.0 0.00 0.00 0.00 62 1013.7
20260502212339 44 68 3.0 10.0 0.00 0.00 0.00 60 1013.5
20260502211836 44 348 7.0 9.0 0.00 0.00 0.00 60 1013.5
20260502211331 43 42 6.0 10.0 0.00 0.00 0.00 59 1013.5
20260502210829 42 336 3.0 9.0 0.00 0.00 0.00 61 1013.5
20260502210326 43 341 5.0 8.0 0.00 0.00 0.00 60 1013.4
20260502205823 43 338 7.0 13.0 0.00 0.00 0.00 58 1013.5
20260502205319 44 333 6.0 15.0 0.00 0.00 0.00 59 1013.4
20260502204817 45 347 6.0 7.0 0.00 0.00 0.00 59 1013.9
20260502204314 44 355 6.0 11.0 0.00 0.00 0.00 58 1013.7
20260502203811 45 316 6.0 9.0 0.00 0.00 0.00 59 1013.7
20260502203309 47 327 4.0 8.0 0.00 0.00 0.00 57 1013.6
20260502202808 46 58 5.0 9.0 0.00 0.00 0.00 63 1013.6
20260502202307 45 24 6.0 9.0 0.00 0.00 0.00 61 1013.6
20260502201804 44 42 10.0 13.0 0.00 0.00 0.00 62 1013.7
20260502201300 42 21 9.0 14.0 0.00 0.00 0.00 63 1013.9
20260502200756 42 53 8.0 13.0 0.00 0.00 0.00 64 1013.9
20260502200252 42 42 6.0 9.0 0.00 0.00 0.00 63 1014.0
20260502195751 42 20 9.0 13.0 0.00 0.00 0.00 63 1013.9
20260502195247 42 344 11.0 13.0 0.00 0.00 0.00 62 1014.0
20260502194744 43 26 6.0 9.0 0.00 0.00 0.00 61 1013.9
20260502194241 45 25 7.0 13.0 0.00 0.00 0.00 61 1013.9
20260502193736 44 325 8.0 13.0 0.00 0.00 0.00 60 1013.7
20260502193234 43 287 6.0 8.0 0.00 0.00 0.00 61 1014.0
20260502192734 42 330 4.0 14.0 0.00 0.00 0.00 61 1014.1
20260502192232 42 10 9.0 16.0 0.00 0.00 0.00 60 1014.0
20260502191728 42 300 8.0 14.0 0.00 0.00 0.00 61 1014.1
20260502191226 44 348 9.0 16.0 0.00 0.00 0.00 59 1013.9
20260502190723 44 294 3.0 10.0 0.00 0.00 0.00 60 1013.7
20260502190221 44 342 8.0 16.0 0.00 0.00 0.00 58 1014.1
20260502185721 44 0 9.0 14.0 0.00 0.00 0.00 59 1014.1
20260502185218 44 343 7.0 17.0 0.00 0.00 0.00 59 1014.1
20260502184714 45 308 10.0 14.0 0.00 0.00 0.00 59 1014.3
20260502184209 47 310 9.0 10.0 0.00 0.00 0.00 59 1014.2
20260502183706 45 271 7.0 16.0 0.00 0.00 0.00 58 1014.1
20260502183202 45 295 10.0 13.0 0.00 0.00 0.00 58 1014.2
20260502182658 45 36 10.0 15.0 0.00 0.00 0.00 55 1014.1
20260502182153 46 295 6.0 9.0 0.00 0.00 0.00 58 1014.1
20260502181651 45 82 6.0 14.0 0.00 0.00 0.00 55 1014.2
20260502181150 45 342 10.0 13.0 0.00 0.00 0.00 59 1014.2
20260502180647 44 347 9.0 15.0 0.00 0.00 0.00 57 1014.2
20260502180144 45 3 8.0 13.0 0.00 0.00 0.00 58 1014.3
20260502170108 44 327 6.0 9.0 0.00 0.00 0.00 58 1014.6
20260502164054 44 300 9.0 13.0 0.00 0.00 0.00 58 1014.6
20260502163550 43 357 3.0 11.0 0.00 0.00 0.00 61 1014.8
20260502163047 44 350 9.0 10.0 0.00 0.00 0.00 57 1014.7
20260502162544 44 53 8.0 13.0 0.00 0.00 0.00 58 1014.7
20260502162041 44 32 4.0 9.0 0.00 0.00 0.00 56 1014.8
20260502161538 44 295 2.0 8.0 0.00 0.00 0.00 60 1014.7
20260502161036 44 303 7.0 9.0 0.00 0.00 0.00 57 1014.7
20260502160534 44 318 7.0 10.0 0.00 0.00 0.00 60 1014.8
20260502151941 42 53 8.0 10.0 0.00 0.00 0.00 61 1014.8
20260502151437 44 293 6.0 9.0 0.00 0.00 0.00 61 1014.6
20260502150935 44 311 6.0 10.0 0.00 0.00 0.00 64 1014.7
20260502150432 45 345 9.0 10.0 0.00 0.00 0.00 61 1014.8
20260502130317 37 6 3.0 4.0 0.00 0.00 0.00 81 1014.8
20260502123803 37 27 4.0 8.0 0.00 0.00 0.00 83 1014.6
20260502123300 37 21 3.0 6.0 0.00 0.00 0.00 84 1014.4
20260502122756 37 82 4.0 6.0 0.00 0.00 0.00 83 1014.5
20260502122253 37 20 2.0 2.0 0.00 0.00 0.00 85 1014.8
20260502121751 36 29 4.0 4.0 0.00 0.00 0.00 85 1014.6
20260502121249 36 60 3.0 6.0 0.00 0.00 0.00 86 1014.7
20260502120745 36 23 2.0 8.0 0.00 0.00 0.00 86 1014.5
20260502120242 36 12 2.0 3.0 0.00 0.00 0.00 87 1014.7
20260502115740 35 94 5.0 8.0 0.00 0.00 0.00 86 1014.5
20260502115236 35 36 2.0 4.0 0.00 0.00 0.00 88 1014.6
20260502114732 35 348 3.0 6.0 0.00 0.00 0.00 88 1014.4
20260502114229 35 25 4.0 7.0 0.00 0.00 0.00 88 1014.4
20260502113726 35 44 4.0 6.0 0.00 0.00 0.00 88 1014.4
20260502113224 35 43 3.0 7.0 0.00 0.00 0.00 89 1014.4
20260502112722 35 324 2.0 3.0 0.00 0.00 0.00 91 1014.5
20260502112220 34 61 3.0 3.0 0.00 0.00 0.00 93 1014.3
20260502111716 33 64 2.0 3.0 0.00 0.00 0.00 94 1014.4
20260502111214 33 44 1.0 3.0 0.00 0.00 0.00 94 1014.4
20260502110712 33 21 2.0 2.0 0.00 0.00 0.00 94 1014.4
20260502110209 33 22 1.0 3.0 0.00 0.00 0.00 94 1014.3
20260502105707 33 23 2.0 3.0 0.00 0.00 0.00 94 1014.4
20260502105203 33 8 2.0 2.0 0.00 0.00 0.00 94 1014.3
20260502104700 33 0 2.0 2.0 0.00 0.00 0.00 93 1014.3
20260502104158 33 21 0.0 2.0 0.00 0.00 0.00 93 1014.3
20260502103655 33 25 2.0 3.0 0.00 0.00 0.00 93 1014.1
20260502103153 33 356 1.0 3.0 0.00 0.00 0.00 93 1014.4
20260502102650 33 355 2.0 3.0 0.00 0.00 0.00 92 1014.4
20260502102146 33 358 2.0 4.0 0.00 0.00 0.00 92 1014.4
20260502101644 33 344 3.0 7.0 0.00 0.00 0.00 91 1014.3
20260502101142 34 2 3.0 3.0 0.00 0.00 0.00 91 1014.5
20260502100641 34 351 4.0 6.0 0.00 0.00 0.00 91 1014.4
20260502100138 33 36 1.0 2.0 0.00 0.00 0.00 90 1014.3
20260502091113 35 310 2.0 3.0 0.00 0.00 0.00 86 1014.5
20260502090609 35 36 3.0 3.0 0.00 0.00 0.00 86 1014.7
20260502090107 35 54 2.0 4.0 0.00 0.00 0.00 86 1014.6
20260502071504 38 318 2.0 2.0 0.00 0.00 0.00 77 1014.5
20260502071002 38 334 0.0 3.0 0.00 0.00 0.00 75 1014.4
20260502070500 38 348 3.0 3.0 0.00 0.00 0.00 76 1014.4
20260502065958 38 5 0.0 1.0 0.00 0.00 0.00 77 1014.6
20260502065456 38 326 1.0 2.0 0.00 0.00 0.00 77 1014.5
20260502064954 38 357 1.0 3.0 0.00 0.00 0.00 77 1014.7
20260502064452 38 351 1.0 1.0 0.00 0.00 0.00 78 1014.8
20260502063948 38 8 1.0 4.0 0.00 0.00 0.00 77 1014.7
20260502063446 38 11 3.0 6.0 0.00 0.00 0.00 77 1014.6
20260502062944 38 47 5.0 6.0 0.00 0.00 0.00 77 1014.8
20260502062441 39 15 2.0 3.0 0.00 0.00 0.00 78 1015.0
20260502061939 39 327 4.0 7.0 0.00 0.00 0.00 77 1015.1
20260502061437 39 359 6.0 8.0 0.00 0.00 0.00 77 1015.1
20260502060933 39 12 3.0 6.0 0.00 0.00 0.00 78 1015.2
20260502060428 39 3 2.0 3.0 0.00 0.00 0.00 79 1015.2
20260502055925 39 323 0.0 4.0 0.00 0.00 0.00 78 1015.0
20260502055423 39 84 3.0 8.0 0.00 0.00 0.00 78 1014.8
20260502054923 39 310 7.0 9.0 0.00 0.00 0.00 82 1014.8
20260502054420 39 49 4.0 7.0 0.00 0.00 0.00 83 1014.8
20260502053917 39 342 6.0 11.0 0.00 0.00 0.00 82 1014.8
20260502053414 39 80 4.0 8.0 0.00 0.00 0.00 82 1015.0
20260502052912 39 17 4.0 9.0 0.00 0.00 0.00 81 1015.0
20260502052410 40 16 5.0 8.0 0.00 0.00 0.00 80 1015.1
20260502051908 40 2 6.0 10.0 0.00 0.00 0.00 79 1014.8
20260502051406 40 51 9.0 14.0 0.00 0.00 0.00 78 1015.0
20260502050902 40 346 10.0 13.0 0.00 0.00 0.00 77 1014.7
20260502050359 40 41 6.0 10.0 0.00 0.00 0.00 81 1015.0
20260502045856 40 32 6.0 11.0 0.00 0.00 0.00 84 1014.7
20260502045352 40 335 4.0 13.0 0.00 0.00 0.00 84 1015.3
20260502044850 41 33 5.0 10.0 0.00 0.00 0.00 87 1015.1
20260502044345 41 25 4.0 9.0 0.00 0.00 0.00 87 1015.2
20260502043843 41 40 4.0 7.0 0.00 0.00 0.00 87 1015.1
20260502043341 41 65 6.0 11.0 0.00 0.00 0.00 87 1015.1
20260502042840 41 6 5.0 10.0 0.00 0.00 0.00 87 1015.3
20260502042337 41 21 3.0 9.0 0.00 0.00 0.00 87 1015.2
20260502041835 41 52 6.0 11.0 0.00 0.00 0.00 86 1015.2
20260502041332 42 352 4.0 7.0 0.00 0.00 0.00 86 1015.3
20260502040829 42 358 4.0 8.0 0.00 0.00 0.00 86 1015.2
20260502040326 42 345 2.0 8.0 0.00 0.00 0.00 86 1015.3
20260502035822 42 359 6.0 7.0 0.00 0.00 0.00 86 1015.0
20260502035319 42 27 4.0 6.0 0.00 0.00 0.00 86 1015.2
20260502034816 42 26 4.0 4.0 0.00 0.00 0.00 85 1015.2
20260502034314 42 47 4.0 6.0 0.00 0.00 0.00 85 1015.0
20260502033813 42 29 1.0 4.0 0.00 0.00 0.00 84 1015.3
20260502033310 42 305 5.0 6.0 0.00 0.00 0.00 84 1015.3
20260502032806 42 340 4.0 8.0 0.00 0.00 0.00 84 1015.2
20260502032305 42 26 4.0 7.0 0.00 0.00 0.00 83 1015.1
20260502031800 42 324 5.0 8.0 0.00 0.00 0.00 83 1015.1
20260502031258 42 38 5.0 8.0 0.00 0.00 0.00 83 1015.3
20260502030756 42 14 5.0 10.0 0.00 0.00 0.00 82 1015.3
20260502030254 42 14 3.0 11.0 0.00 0.00 0.00 81 1015.4
20260502025751 42 326 6.0 9.0 0.00 0.00 0.00 81 1015.3
20260502025249 42 308 4.0 7.0 0.00 0.00 0.00 80 1015.3
20260502024746 42 353 2.0 10.0 0.00 0.00 0.00 80 1015.2
20260502024244 42 65 3.0 7.0 0.00 0.00 0.00 80 1015.3
20260502023742 42 27 7.0 9.0 0.00 0.00 0.00 80 1015.0
20260502023239 42 349 8.0 14.0 0.00 0.00 0.00 80 1015.0
20260502022737 43 4 11.0 14.0 0.00 0.00 0.00 80 1014.8
20260502022233 43 353 10.0 16.0 0.00 0.00 0.00 81 1014.7
20260502021730 43 331 7.0 19.0 0.00 0.00 0.00 82 1014.6
20260502021228 43 342 5.0 10.0 0.00 0.00 0.00 83 1014.5
20260502020725 43 332 4.0 9.0 0.00 0.00 0.00 84 1014.6
20260502020222 44 352 4.0 8.0 0.00 0.00 0.00 84 1014.6
20260502015720 44 14 10.0 15.0 0.00 0.00 0.00 83 1014.4
20260502015216 44 62 7.0 8.0 0.00 0.00 0.00 85 1014.1
20260502014714 44 8 4.0 11.0 0.00 0.00 0.00 85 1014.2
20260502014210 44 352 7.0 15.0 0.00 0.00 0.00 84 1013.9
20260502013706 44 3 9.0 11.0 0.00 0.00 0.00 84 1014.0
20260502013201 44 5 9.0 10.0 0.00 0.00 0.00 84 1013.7
20260502012659 44 33 6.0 11.0 0.00 0.00 0.00 84 1013.7
20260502012157 45 350 8.0 10.0 0.00 0.00 0.00 84 1013.6
20260502011653 45 37 9.0 11.0 0.00 0.00 0.00 84 1013.7
20260502011149 45 344 4.0 17.0 0.00 0.00 0.00 84 1013.6
20260502010647 45 39 9.0 15.0 0.00 0.00 0.00 83 1013.5
20260502010143 45 358 8.0 15.0 0.00 0.00 0.00 85 1013.4
20260502005641 46 30 7.0 13.0 0.00 0.00 0.00 84 1013.2
20260502005138 46 46 6.0 16.0 0.00 0.00 0.00 85 1013.5
20260502004634 46 0 5.0 16.0 0.00 0.00 0.00 85 1013.2
20260502004131 46 22 10.0 13.0 0.00 0.00 0.00 84 1013.2
20260502003629 46 45 13.0 18.0 0.00 0.00 0.00 84 1013.2
20260502003126 46 28 14.0 17.0 0.00 0.00 0.00 84 1012.7
20260502002622 46 19 11.0 17.0 0.00 0.00 0.00 83 1013.1
20260502002120 46 23 6.0 11.0 0.00 0.00 0.00 82 1012.9
20260502001617 46 44 11.0 15.0 0.00 0.00 0.00 81 1012.9
20260502001114 46 13 10.0 11.0 0.00 0.00 0.00 80 1012.6
20260502000612 47 8 7.0 11.0 0.00 0.00 0.00 79 1012.5
20260502000109 47 38 7.0 9.0 0.00 0.00 0.00 78 1012.6
20260501235605 47 358 5.0 15.0 0.00 0.00 0.00 78 1012.4
20260501235101 47 31 13.0 16.0 0.00 0.00 0.00 76 1012.3
20260501234556 48 31 4.0 11.0 0.00 0.00 0.00 75 1012.4
20260501234055 49 29 10.0 16.0 0.00 0.00 0.00 72 1012.2